TimeMST,TemperatureF,Dew PointF,Humidity,Sea Level PressureIn,VisibilityMPH,Wind Direction,Wind SpeedMPH,Gust SpeedMPH,PrecipitationIn,Events,Conditions,WindDirDegrees,DateUTC
12:15 AM,77.0,32.0,19,29.83,10.0,Calm,Calm,-,N/A,,Clear,0,2013-05-20 07:15:00
12:35 AM,71.6,32.0,23,29.83,10.0,Calm,Calm,-,N/A,,Clear,0,2013-05-20 07:35:00
12:55 AM,78.8,33.8,20,29.83,10.0,WSW,4.6,-,N/A,,Clear,240,2013-05-20 07:55:00
1:15 AM,73.4,32.0,22,29.83,10.0,NW,5.8,-,N/A,,Clear,310,2013-05-20 08:15:00
1:35 AM,78.8,33.8,20,29.83,10.0,WNW,3.5,-,N/A,,Clear,290,2013-05-20 08:35:00
1:55 AM,71.6,32.0,23,29.84,10.0,Calm,Calm,-,N/A,,Clear,0,2013-05-20 08:55:00
2:15 AM,71.6,32.0,23,29.84,10.0,Calm,Calm,-,N/A,,Clear,0,2013-05-20 09:15:00
2:35 AM,69.8,32.0,25,29.83,10.0,Calm,Calm,-,N/A,,Clear,0,2013-05-20 09:35:00
2:55 AM,68.0,32.0,26,29.84,10.0,ENE,3.5,-,N/A,,Clear,60,2013-05-20 09:55:00
3:15 AM,66.2,32.0,28,29.85,10.0,SE,8.1,-,N/A,,Clear,140,2013-05-20 10:15:00
3:35 AM,64.4,35.6,34,29.85,10.0,ESE,5.8,-,N/A,,Clear,120,2013-05-20 10:35:00
3:55 AM,64.4,33.8,32,29.85,10.0,ESE,3.5,-,N/A,,Clear,110,2013-05-20 10:55:00
4:15 AM,64.4,33.8,32,29.86,10.0,East,4.6,-,N/A,,Clear,100,2013-05-20 11:15:00
4:35 AM,64.4,33.8,32,29.86,10.0,East,5.8,-,N/A,,Clear,100,2013-05-20 11:35:00
4:47 AM,66.2,33.8,30,29.86,20.0,East,6.9,-,N/A,,Clear,80,2013-05-20 11:47:00
4:55 AM,64.4,32.0,30,29.86,10.0,ESE,6.9,-,N/A,,Clear,120,2013-05-20 11:55:00
5:15 AM,64.4,32.0,30,29.86,10.0,SE,6.9,-,N/A,,Clear,130,2013-05-20 12:15:00
5:47 AM,64.4,35.6,34,29.87,30.0,East,5.8,-,N/A,,Clear,100,2013-05-20 12:47:00
6:47 AM,69.8,33.8,27,29.89,30.0,ESE,6.9,-,N/A,,Clear,110,2013-05-20 13:47:00
7:47 AM,78.8,37.4,23,29.90,30.0,East,5.8,-,N/A,,Clear,90,2013-05-20 14:47:00
8:52 AM,80.6,35.6,20,29.90,30.0,ENE,3.5,-,N/A,,Clear,60,2013-05-20 15:52:00
9:47 AM,84.2,33.8,16,29.90,30.0,Variable,4.6,-,N/A,,Clear,0,2013-05-20 16:47:00
10:50 AM,84.2,24.8,11,29.90,30.0,NW,5.8,-,N/A,,Clear,320,2013-05-20 17:50:00
11:47 AM,89.6,23.0,9,29.89,30.0,NW,6.9,-,N/A,,Clear,310,2013-05-20 18:47:00
12:47 PM,93.2,23.0,8,29.87,30.0,West,15.0,21.9,N/A,,Clear,280,2013-05-20 19:47:00
1:55 PM,93.2,23.0,8,29.85,30.0,WNW,10.4,19.6,N/A,,Clear,290,2013-05-20 20:55:00
2:47 PM,93.2,19.4,7,29.83,30.0,WNW,17.3,25.3,N/A,,Clear,290,2013-05-20 21:47:00
3:49 PM,93.2,19.4,7,29.82,30.0,West,18.4,26.5,N/A,,Clear,280,2013-05-20 22:49:00
4:50 PM,93.2,19.4,7,29.81,35.0,WNW,17.3,29.9,N/A,,Clear,290,2013-05-20 23:50:00
5:48 PM,91.4,19.4,7,29.80,35.0,West,18.4,24.2,N/A,,Clear,270,2013-05-21 00:48:00
6:47 PM,87.8,19.4,8,29.80,35.0,West,10.4,-,N/A,,Clear,270,2013-05-21 01:47:00
7:47 PM,84.2,17.6,8,29.82,20.0,West,6.9,-,N/A,,Clear,270,2013-05-21 02:47:00
7:55 PM,84.2,19.4,9,29.82,10.0,West,6.9,-,N/A,,Clear,280,2013-05-21 02:55:00
8:15 PM,82.4,19.4,10,29.83,10.0,WSW,6.9,-,N/A,,Clear,250,2013-05-21 03:15:00
8:35 PM,80.6,21.2,11,29.83,10.0,WSW,4.6,-,N/A,,Clear,240,2013-05-21 03:35:00
8:47 PM,80.6,21.2,11,29.83,20.0,West,5.8,-,N/A,,Clear,260,2013-05-21 03:47:00
8:55 PM,80.6,23.0,12,29.84,10.0,West,4.6,-,N/A,,Clear,260,2013-05-21 03:55:00
9:15 PM,78.8,21.2,12,29.85,10.0,WSW,5.8,-,N/A,,Clear,250,2013-05-21 04:15:00
9:35 PM,75.2,23.0,14,29.85,10.0,SSW,5.8,-,N/A,,Clear,210,2013-05-21 04:35:00
9:47 PM,75.2,21.2,13,29.85,20.0,WSW,5.8,-,N/A,,Clear,240,2013-05-21 04:47:00
9:55 PM,77.0,23.0,13,29.86,10.0,SW,6.9,-,N/A,,Clear,220,2013-05-21 04:55:00
10:15 PM,73.4,23.0,15,29.86,10.0,SW,4.6,-,N/A,,Clear,220,2013-05-21 05:15:00
10:35 PM,73.4,21.2,14,29.86,10.0,Calm,Calm,-,N/A,,Clear,0,2013-05-21 05:35:00
10:47 PM,73.4,19.4,13,29.86,20.0,Variable,3.5,-,N/A,,Clear,0,2013-05-21 05:47:00
10:55 PM,71.6,21.2,15,29.86,10.0,ENE,3.5,-,N/A,,Clear,60,2013-05-21 05:55:00
11:35 PM,71.6,19.4,14,29.86,10.0,ESE,4.6,-,N/A,,Clear,120,2013-05-21 06:35:00
11:55 PM,68.0,23.0,18,29.87,10.0,ESE,6.9,-,N/A,,Clear,120,2013-05-21 06:55:00